Terug naar catalogus

DEB CSSHQ

ActiefVLEO
NORAD 62721·DEBRIS·🇨🇳 China
Deze satellietnaam is nog niet bevestigd door officiële bronnen.

Gelanceerd Dec 14, 2023 vanaf Jiuquan Satellite Launch Center

Loading…

Volgende Passages (komende 24 uur)

TLE

VerouderdSource: Space-Track

Epoch: Sep 7, 2026, 13:46 UTC

1 62721U 23195H   26250.57425272  .00007623  00000-0  49917-3 0  9998
2 62721  49.9836 195.1373 0001432  21.2995 338.8013 15.08560522112033

Volg DEB CSSHQ in realtime met AllMySat

Download on the App Store